Location: Barrio Pajares
(40.5500°N, 4.1667°W)
Time: 22:02:27
(UTC+00:00)

Cosmos 2263 Rocket - Pass Details

Date: 18 April 2024
Orbit: 824 x 847 km, 71.0° (Epoch: 22 May)

Event Time Altitude Azimuth Distance (km) Brightness Sun altitude
Rises 20:58:19 0° 352° (N) 3,390 6.0 -21.0°
Reaches altitude 10° 21:02:27 10° 21° (NNE) 2,446 4.8 -21.6°
Maximum altitude 21:04:45 12° 46° (NE) 2,270 4.4 -22.0°
Enters shadow 21:06:01 12° 60° (ENE) 2,322 4.3 -22.2°
